Year,Month,Day,Hour,Minute,Value (Times are PST for temperature in C)
2014,06,07,00,00,13.80
2014,06,07,00,01,13.80
2014,06,07,00,02,13.70
2014,06,07,00,03,13.70
2014,06,07,00,04,13.70
2014,06,07,00,05,13.70
2014,06,07,00,06,13.70
2014,06,07,00,07,13.70
2014,06,07,00,08,13.70
2014,06,07,00,09,13.70
2014,06,07,00,10,13.70
2014,06,07,00,11,13.70
2014,06,07,00,12,13.70
2014,06,07,00,13,13.70
2014,06,07,00,14,13.70
2014,06,07,00,15,13.70
2014,06,07,00,16,13.70
2014,06,07,00,17,13.70
2014,06,07,00,18,13.70
2014,06,07,00,19,13.70
2014,06,07,00,20,13.70
2014,06,07,00,21,13.70
2014,06,07,00,22,13.70
2014,06,07,00,23,13.70
2014,06,07,00,24,13.70
2014,06,07,00,25,13.80
2014,06,07,00,26,13.80
2014,06,07,00,27,13.80
2014,06,07,00,28,13.80
2014,06,07,00,29,13.80
2014,06,07,00,30,13.80
2014,06,07,00,31,13.80
2014,06,07,00,32,13.80
2014,06,07,00,33,13.80
2014,06,07,00,34,13.80
2014,06,07,00,35,13.80
2014,06,07,00,36,13.80
2014,06,07,00,37,13.80
2014,06,07,00,38,13.80
2014,06,07,00,39,13.80
2014,06,07,00,40,13.80
2014,06,07,00,41,13.80
2014,06,07,00,42,13.80
2014,06,07,00,43,13.80
2014,06,07,00,44,13.80
2014,06,07,00,45,13.80
2014,06,07,00,46,13.80
2014,06,07,00,47,13.80
2014,06,07,00,48,13.80
2014,06,07,00,49,13.80
2014,06,07,00,50,13.80
2014,06,07,00,51,13.80
2014,06,07,00,52,13.80
2014,06,07,00,53,13.80
2014,06,07,00,54,13.80
2014,06,07,00,55,13.80
2014,06,07,00,56,13.80
2014,06,07,00,57,13.80
2014,06,07,00,58,13.80
2014,06,07,00,59,13.80
2014,06,07,01,00,13.80
2014,06,07,01,01,13.80
2014,06,07,01,02,13.80
2014,06,07,01,03,13.80
2014,06,07,01,04,13.80
2014,06,07,01,05,13.80
2014,06,07,01,06,13.80
2014,06,07,01,07,13.80
2014,06,07,01,08,13.80
2014,06,07,01,09,13.80
2014,06,07,01,10,13.90
2014,06,07,01,11,13.80
2014,06,07,01,12,13.80
2014,06,07,01,13,13.80
2014,06,07,01,14,13.80
2014,06,07,01,15,13.80
2014,06,07,01,16,13.80
2014,06,07,01,17,13.80
2014,06,07,01,18,13.80
2014,06,07,01,19,13.80
2014,06,07,01,20,13.80
2014,06,07,01,21,13.80
2014,06,07,01,22,13.80
2014,06,07,01,23,13.80
2014,06,07,01,24,13.80
2014,06,07,01,25,13.80
2014,06,07,01,26,13.90
2014,06,07,01,27,13.90
2014,06,07,01,28,13.90
2014,06,07,01,29,13.90
2014,06,07,01,30,13.90
2014,06,07,01,31,13.90
2014,06,07,01,32,13.90
2014,06,07,01,33,13.90
2014,06,07,01,34,13.90
2014,06,07,01,35,13.90
2014,06,07,01,36,13.90
2014,06,07,01,37,13.90
2014,06,07,01,38,13.90
2014,06,07,01,39,13.90
2014,06,07,01,40,13.90
2014,06,07,01,41,13.90
2014,06,07,01,42,13.90
2014,06,07,01,43,13.90
2014,06,07,01,44,13.90
2014,06,07,01,45,13.90
2014,06,07,01,46,13.90
2014,06,07,01,47,13.90
2014,06,07,01,48,13.90
2014,06,07,01,49,13.90
2014,06,07,01,50,13.80
2014,06,07,01,51,13.80
2014,06,07,01,52,13.80
2014,06,07,01,53,13.80
2014,06,07,01,54,13.80
2014,06,07,01,55,13.80
2014,06,07,01,56,13.80
2014,06,07,01,57,13.80
2014,06,07,01,58,13.80
2014,06,07,01,59,13.80
2014,06,07,02,00,13.80
2014,06,07,02,01,13.90
2014,06,07,02,02,13.90
2014,06,07,02,03,13.90
2014,06,07,02,04,13.90
2014,06,07,02,05,13.90
2014,06,07,02,06,13.80
2014,06,07,02,07,13.80
2014,06,07,02,08,13.80
2014,06,07,02,09,13.80
2014,06,07,02,10,13.80
2014,06,07,02,11,13.80
2014,06,07,02,12,13.80
2014,06,07,02,13,13.80
2014,06,07,02,14,13.80
2014,06,07,02,15,13.80
2014,06,07,02,16,13.80
2014,06,07,02,17,13.80
2014,06,07,02,18,13.80
2014,06,07,02,19,13.80
2014,06,07,02,20,13.80
2014,06,07,02,21,13.80
2014,06,07,02,22,13.80
2014,06,07,02,23,13.80
2014,06,07,02,24,13.70
2014,06,07,02,25,13.70
2014,06,07,02,26,13.70
2014,06,07,02,27,13.70
2014,06,07,02,28,13.70
2014,06,07,02,29,13.60
2014,06,07,02,30,13.60
2014,06,07,02,31,13.60
2014,06,07,02,32,13.60
2014,06,07,02,33,13.60
2014,06,07,02,34,13.60
2014,06,07,02,35,13.60
2014,06,07,02,36,13.60
2014,06,07,02,37,13.60
2014,06,07,02,38,13.60
2014,06,07,02,39,13.60
2014,06,07,02,40,13.60
2014,06,07,02,41,13.60
2014,06,07,02,42,13.60
2014,06,07,02,43,13.60
2014,06,07,02,44,13.60
2014,06,07,02,45,13.60
2014,06,07,02,46,13.60
2014,06,07,02,47,13.60
2014,06,07,02,48,13.60
2014,06,07,02,49,13.50
2014,06,07,02,50,13.50
2014,06,07,02,51,13.50
2014,06,07,02,52,13.50
2014,06,07,02,53,13.40
2014,06,07,02,54,13.40
2014,06,07,02,55,13.40
2014,06,07,02,56,13.40
2014,06,07,02,57,13.40
2014,06,07,02,58,13.40
2014,06,07,02,59,13.40
2014,06,07,03,00,13.40
2014,06,07,03,01,13.40
2014,06,07,03,02,13.40
2014,06,07,03,03,13.40
2014,06,07,03,04,13.40
2014,06,07,03,05,13.40
2014,06,07,03,06,13.40
2014,06,07,03,07,13.40
2014,06,07,03,08,13.40
2014,06,07,03,09,13.40
2014,06,07,03,10,13.40
2014,06,07,03,11,13.40
2014,06,07,03,12,13.40
2014,06,07,03,13,13.40
2014,06,07,03,14,13.40
2014,06,07,03,15,13.40
2014,06,07,03,16,13.40
2014,06,07,03,17,13.40
2014,06,07,03,18,13.40
2014,06,07,03,19,13.40
2014,06,07,03,20,13.40
2014,06,07,03,21,13.40
2014,06,07,03,22,13.40
2014,06,07,03,23,13.40
2014,06,07,03,24,13.40
2014,06,07,03,25,13.40
2014,06,07,03,26,13.40
2014,06,07,03,27,13.40
2014,06,07,03,28,13.40
2014,06,07,03,29,13.40
2014,06,07,03,30,13.40
2014,06,07,03,31,13.40
2014,06,07,03,32,13.40
2014,06,07,03,33,13.40
2014,06,07,03,34,13.40
2014,06,07,03,35,13.40
2014,06,07,03,36,13.40
2014,06,07,03,37,13.40
2014,06,07,03,38,13.40
2014,06,07,03,39,13.40
2014,06,07,03,40,13.40
2014,06,07,03,41,13.50
2014,06,07,03,42,13.50
2014,06,07,03,43,13.50
2014,06,07,03,44,13.50
2014,06,07,03,45,13.50
2014,06,07,03,46,13.50
2014,06,07,03,47,13.50
2014,06,07,03,48,13.50
2014,06,07,03,49,13.50
2014,06,07,03,50,13.50
2014,06,07,03,51,13.50
2014,06,07,03,52,13.50
2014,06,07,03,53,13.50
2014,06,07,03,54,13.50
2014,06,07,03,55,13.50
2014,06,07,03,56,13.50
2014,06,07,03,57,13.50
2014,06,07,03,58,13.50
2014,06,07,03,59,13.50
2014,06,07,04,00,13.50
2014,06,07,04,01,13.50
2014,06,07,04,02,13.50
2014,06,07,04,03,13.50
2014,06,07,04,04,13.50
2014,06,07,04,05,13.50
2014,06,07,04,06,13.50
2014,06,07,04,07,13.50
2014,06,07,04,08,13.50
2014,06,07,04,09,13.60
2014,06,07,04,10,13.50
2014,06,07,04,11,13.60
2014,06,07,04,12,13.60
2014,06,07,04,13,13.50
2014,06,07,04,14,13.60
2014,06,07,04,15,13.60
2014,06,07,04,16,13.60
2014,06,07,04,17,13.60
2014,06,07,04,18,13.60
2014,06,07,04,19,13.60
2014,06,07,04,20,13.60
2014,06,07,04,21,13.60
2014,06,07,04,22,13.60
2014,06,07,04,23,13.60
2014,06,07,04,24,13.60
2014,06,07,04,25,13.60
2014,06,07,04,26,13.60
2014,06,07,04,27,13.60
2014,06,07,04,28,13.60
2014,06,07,04,29,13.60
2014,06,07,04,30,13.60
2014,06,07,04,31,13.60
2014,06,07,04,32,13.60
2014,06,07,04,33,13.60
2014,06,07,04,34,13.60
2014,06,07,04,35,13.60
2014,06,07,04,36,13.60
2014,06,07,04,37,13.60
2014,06,07,04,38,13.60
2014,06,07,04,39,13.60
2014,06,07,04,40,13.60
2014,06,07,04,41,13.60
2014,06,07,04,42,13.60
2014,06,07,04,43,13.70
2014,06,07,04,44,13.70
2014,06,07,04,45,13.70
2014,06,07,04,46,13.70
2014,06,07,04,47,13.70
2014,06,07,04,48,13.70
2014,06,07,04,49,13.70
2014,06,07,04,50,13.70
2014,06,07,04,51,13.70
2014,06,07,04,52,13.70
2014,06,07,04,53,13.70
2014,06,07,04,54,13.80
2014,06,07,04,55,13.80
2014,06,07,04,56,13.80
2014,06,07,04,57,13.80
2014,06,07,04,58,13.80
2014,06,07,04,59,13.80
2014,06,07,05,00,13.80
2014,06,07,05,01,13.80
2014,06,07,05,02,13.80
2014,06,07,05,03,13.80
2014,06,07,05,04,13.80
2014,06,07,05,05,13.80
2014,06,07,05,06,13.80
2014,06,07,05,07,13.80
2014,06,07,05,08,13.80
2014,06,07,05,09,13.80
2014,06,07,05,10,13.80
2014,06,07,05,11,13.80
2014,06,07,05,12,13.80
2014,06,07,05,13,13.70
2014,06,07,05,14,13.70
2014,06,07,05,15,13.70
2014,06,07,05,16,13.70
2014,06,07,05,17,13.70
2014,06,07,05,18,13.80
2014,06,07,05,19,13.80
2014,06,07,05,20,13.80
2014,06,07,05,21,13.80
2014,06,07,05,22,13.80
2014,06,07,05,23,13.80
2014,06,07,05,24,13.80
2014,06,07,05,25,13.80
2014,06,07,05,26,13.70
2014,06,07,05,27,13.70
2014,06,07,05,28,13.70
2014,06,07,05,29,13.70
2014,06,07,05,30,13.70
2014,06,07,05,31,13.70
2014,06,07,05,32,13.70
2014,06,07,05,33,13.70
2014,06,07,05,34,13.70
2014,06,07,05,35,13.70
2014,06,07,05,36,13.70
2014,06,07,05,37,13.60
2014,06,07,05,38,13.60
2014,06,07,05,39,13.60
2014,06,07,05,40,13.60
2014,06,07,05,41,13.60
2014,06,07,05,42,13.60
2014,06,07,05,43,13.60
2014,06,07,05,44,13.50
2014,06,07,05,45,13.50
2014,06,07,05,46,13.50
2014,06,07,05,47,13.40
2014,06,07,05,48,13.40
2014,06,07,05,49,13.40
2014,06,07,05,50,13.40
2014,06,07,05,51,13.40
2014,06,07,05,52,13.30
2014,06,07,05,53,13.30
2014,06,07,05,54,13.30
2014,06,07,05,55,13.30
2014,06,07,05,56,13.30
2014,06,07,05,57,13.30
2014,06,07,05,58,13.30
2014,06,07,05,59,13.20
2014,06,07,06,00,13.20
2014,06,07,06,01,13.20
2014,06,07,06,02,13.20
2014,06,07,06,03,13.20
2014,06,07,06,04,13.20
2014,06,07,06,05,13.20
2014,06,07,06,06,13.20
2014,06,07,06,07,13.20
2014,06,07,06,08,13.20
2014,06,07,06,09,13.20
2014,06,07,06,10,13.20
2014,06,07,06,11,13.20
2014,06,07,06,12,13.20
2014,06,07,06,13,13.20
2014,06,07,06,14,13.20
2014,06,07,06,15,13.20
2014,06,07,06,16,13.20
2014,06,07,06,17,13.20
2014,06,07,06,18,13.20
2014,06,07,06,19,13.20
2014,06,07,06,20,13.30
2014,06,07,06,21,13.30
2014,06,07,06,22,13.30
2014,06,07,06,23,13.30
2014,06,07,06,24,13.30
2014,06,07,06,25,13.30
2014,06,07,06,26,13.30
2014,06,07,06,27,13.30
2014,06,07,06,28,13.40
2014,06,07,06,29,13.40
2014,06,07,06,30,13.40
2014,06,07,06,31,13.40
2014,06,07,06,32,13.40
2014,06,07,06,33,13.40
2014,06,07,06,34,13.40
2014,06,07,06,35,13.50
2014,06,07,06,36,13.50
2014,06,07,06,37,13.50
2014,06,07,06,38,13.60
2014,06,07,06,39,13.60
2014,06,07,06,40,13.60
2014,06,07,06,41,13.60
2014,06,07,06,42,13.60
2014,06,07,06,43,13.70
2014,06,07,06,44,13.70
2014,06,07,06,45,13.70
2014,06,07,06,46,13.70
2014,06,07,06,47,13.70
2014,06,07,06,48,13.70
2014,06,07,06,49,13.70
2014,06,07,06,50,13.70
2014,06,07,06,51,13.80
2014,06,07,06,52,13.80
2014,06,07,06,53,13.80
2014,06,07,06,54,13.80
2014,06,07,06,55,13.80
2014,06,07,06,56,13.80
2014,06,07,06,57,13.80
2014,06,07,06,58,13.80
2014,06,07,06,59,13.80
2014,06,07,07,00,13.80
2014,06,07,07,01,13.80
2014,06,07,07,02,13.80
2014,06,07,07,03,13.80
2014,06,07,07,04,13.80
2014,06,07,07,05,13.80
2014,06,07,07,06,13.80
2014,06,07,07,07,13.80
2014,06,07,07,08,13.80
2014,06,07,07,09,13.80
2014,06,07,07,10,13.80
2014,06,07,07,11,13.80
2014,06,07,07,12,13.80
2014,06,07,07,13,13.80
2014,06,07,07,14,13.80
2014,06,07,07,15,13.80
2014,06,07,07,16,13.80
2014,06,07,07,17,13.80
2014,06,07,07,18,13.80
2014,06,07,07,19,13.80
2014,06,07,07,20,13.80
2014,06,07,07,21,13.80
2014,06,07,07,22,13.80
2014,06,07,07,23,13.80
2014,06,07,07,24,13.80
2014,06,07,07,25,13.80
2014,06,07,07,26,13.80
2014,06,07,07,27,13.80
2014,06,07,07,28,13.90
2014,06,07,07,29,13.90
2014,06,07,07,30,13.90
2014,06,07,07,31,13.90
2014,06,07,07,32,13.90
2014,06,07,07,33,13.90
2014,06,07,07,34,13.90
2014,06,07,07,35,13.90
2014,06,07,07,36,14.00
2014,06,07,07,37,14.00
2014,06,07,07,38,14.10
2014,06,07,07,39,14.10
2014,06,07,07,40,14.10
2014,06,07,07,41,14.20
2014,06,07,07,42,14.20
2014,06,07,07,43,14.20
2014,06,07,07,44,14.30
2014,06,07,07,45,14.30
2014,06,07,07,46,14.30
2014,06,07,07,47,14.40
2014,06,07,07,48,14.40
2014,06,07,07,49,14.50
2014,06,07,07,50,14.50
2014,06,07,07,51,14.60
2014,06,07,07,52,14.60
2014,06,07,07,53,14.70
2014,06,07,07,54,14.70
2014,06,07,07,55,14.70
2014,06,07,07,56,14.70
2014,06,07,07,57,14.70
2014,06,07,07,58,14.80
2014,06,07,07,59,14.80
2014,06,07,08,00,14.80
2014,06,07,08,01,14.80
2014,06,07,08,02,14.90
2014,06,07,08,03,14.90
2014,06,07,08,04,14.90
2014,06,07,08,05,14.90
2014,06,07,08,06,14.90
2014,06,07,08,07,15.00
2014,06,07,08,08,15.00
2014,06,07,08,09,15.00
2014,06,07,08,10,15.00
2014,06,07,08,11,15.00
2014,06,07,08,12,15.10
2014,06,07,08,13,15.10
2014,06,07,08,14,15.10
2014,06,07,08,15,15.20
2014,06,07,08,16,15.20
2014,06,07,08,17,15.20
2014,06,07,08,18,15.20
2014,06,07,08,19,15.20
2014,06,07,08,20,15.20
2014,06,07,08,21,15.30
2014,06,07,08,22,15.30
2014,06,07,08,23,15.30
2014,06,07,08,24,15.30
2014,06,07,08,25,15.30
2014,06,07,08,26,15.30
2014,06,07,08,27,15.30
2014,06,07,08,28,15.30
2014,06,07,08,29,15.40
2014,06,07,08,30,15.40
2014,06,07,08,31,15.50
2014,06,07,08,32,15.50
2014,06,07,08,33,15.50
2014,06,07,08,34,15.60
2014,06,07,08,35,15.60
2014,06,07,08,36,15.60
2014,06,07,08,37,15.70
2014,06,07,08,38,15.80
2014,06,07,08,39,15.80
2014,06,07,08,40,15.90
2014,06,07,08,41,16.00
2014,06,07,08,42,16.10
2014,06,07,08,43,16.10
2014,06,07,08,44,16.20
2014,06,07,08,45,16.20
2014,06,07,08,46,16.20
2014,06,07,08,47,16.30
2014,06,07,08,48,16.30
2014,06,07,08,49,16.40
2014,06,07,08,50,16.40
2014,06,07,08,51,16.50
2014,06,07,08,52,16.40
2014,06,07,08,53,16.40
2014,06,07,08,54,16.50
2014,06,07,08,55,16.50
2014,06,07,08,56,16.60
2014,06,07,08,57,16.70
2014,06,07,08,58,16.80
2014,06,07,08,59,16.80
2014,06,07,09,00,16.90
2014,06,07,09,01,17.00
2014,06,07,09,02,17.00
2014,06,07,09,03,17.10
2014,06,07,09,04,17.20
2014,06,07,09,05,17.30
2014,06,07,09,06,17.50
2014,06,07,09,07,17.60
2014,06,07,09,08,17.70
2014,06,07,09,09,17.80
2014,06,07,09,10,17.90
2014,06,07,09,11,18.00
2014,06,07,09,12,18.10
2014,06,07,09,13,18.20
2014,06,07,09,14,18.30
2014,06,07,09,15,18.40
2014,06,07,09,16,18.50
2014,06,07,09,17,18.50
2014,06,07,09,18,18.60
2014,06,07,09,19,18.60
2014,06,07,09,20,18.70
2014,06,07,09,21,18.70
2014,06,07,09,22,18.70
2014,06,07,09,23,18.80
2014,06,07,09,24,18.90
2014,06,07,09,25,18.90
2014,06,07,09,26,19.00
2014,06,07,09,27,19.10
2014,06,07,09,28,19.10
2014,06,07,09,29,19.20
2014,06,07,09,30,19.20
2014,06,07,09,31,19.30
2014,06,07,09,32,19.30
2014,06,07,09,33,19.20
2014,06,07,09,34,19.20
2014,06,07,09,35,19.00
2014,06,07,09,36,18.80
2014,06,07,09,37,18.70
2014,06,07,09,38,18.50
2014,06,07,09,39,18.40
2014,06,07,09,40,18.30
2014,06,07,09,41,18.10
2014,06,07,09,42,18.00
2014,06,07,09,43,17.80
2014,06,07,09,44,17.70
2014,06,07,09,45,17.60
2014,06,07,09,46,17.60
2014,06,07,09,47,17.50
2014,06,07,09,48,17.50
2014,06,07,09,49,17.60
2014,06,07,09,50,17.80
2014,06,07,09,51,17.90
2014,06,07,09,52,18.00
2014,06,07,09,53,18.10
2014,06,07,09,54,18.20
2014,06,07,09,55,18.30
2014,06,07,09,56,18.30
2014,06,07,09,57,18.30
2014,06,07,09,58,18.30
2014,06,07,09,59,18.40
2014,06,07,10,00,18.30
2014,06,07,10,01,18.20
2014,06,07,10,02,18.20
2014,06,07,10,03,18.10
2014,06,07,10,04,18.00
2014,06,07,10,05,17.80
2014,06,07,10,06,17.70
2014,06,07,10,07,17.60
2014,06,07,10,08,17.50
2014,06,07,10,09,17.40
2014,06,07,10,10,17.30
2014,06,07,10,11,17.30
2014,06,07,10,12,17.40
2014,06,07,10,13,17.40
2014,06,07,10,14,17.50
2014,06,07,10,15,17.60
2014,06,07,10,16,17.70
2014,06,07,10,17,17.70
2014,06,07,10,18,17.80
2014,06,07,10,19,17.80
2014,06,07,10,20,17.90
2014,06,07,10,21,17.90
2014,06,07,10,22,18.00
2014,06,07,10,23,18.10
2014,06,07,10,24,18.20
2014,06,07,10,25,18.30
2014,06,07,10,26,18.40
2014,06,07,10,27,18.40
2014,06,07,10,28,18.40
2014,06,07,10,29,18.40
2014,06,07,10,30,18.40
2014,06,07,10,31,18.30
2014,06,07,10,32,18.30
2014,06,07,10,33,18.20
2014,06,07,10,34,18.10
2014,06,07,10,35,18.10
2014,06,07,10,36,18.20
2014,06,07,10,37,18.20
2014,06,07,10,38,18.20
2014,06,07,10,39,18.10
2014,06,07,10,40,18.10
2014,06,07,10,41,18.10
2014,06,07,10,42,18.10
2014,06,07,10,43,18.20
2014,06,07,10,44,18.20
2014,06,07,10,45,18.20
2014,06,07,10,46,18.20
2014,06,07,10,47,18.20
2014,06,07,10,48,18.10
2014,06,07,10,49,18.10
2014,06,07,10,50,18.00
2014,06,07,10,51,18.00
2014,06,07,10,52,18.10
2014,06,07,10,53,18.20
2014,06,07,10,54,18.30
2014,06,07,10,55,18.40
2014,06,07,10,56,18.40
2014,06,07,10,57,18.40
2014,06,07,10,58,18.40
2014,06,07,10,59,18.40
2014,06,07,11,00,18.50
2014,06,07,11,01,18.60
2014,06,07,11,02,18.70
2014,06,07,11,03,18.70
2014,06,07,11,04,18.90
2014,06,07,11,05,18.90
2014,06,07,11,06,18.90
2014,06,07,11,07,18.90
2014,06,07,11,08,19.00
2014,06,07,11,09,19.00
2014,06,07,11,10,19.00
2014,06,07,11,11,19.00
2014,06,07,11,12,19.00
2014,06,07,11,13,18.90
2014,06,07,11,14,18.90
2014,06,07,11,15,18.80
2014,06,07,11,16,18.70
2014,06,07,11,17,18.70
2014,06,07,11,18,18.70
2014,06,07,11,19,18.70
2014,06,07,11,20,18.70
2014,06,07,11,21,18.60
2014,06,07,11,22,18.60
2014,06,07,11,23,18.50
2014,06,07,11,24,18.60
2014,06,07,11,25,18.60
2014,06,07,11,26,18.60
2014,06,07,11,27,18.60
2014,06,07,11,28,18.60
2014,06,07,11,29,18.70
2014,06,07,11,30,18.70
2014,06,07,11,31,18.80
2014,06,07,11,32,18.90
2014,06,07,11,33,18.90
2014,06,07,11,34,18.90
2014,06,07,11,35,18.90
2014,06,07,11,36,18.90
2014,06,07,11,37,18.90
2014,06,07,11,38,18.80
2014,06,07,11,39,18.80
2014,06,07,11,40,18.80
2014,06,07,11,41,18.90
2014,06,07,11,42,18.90
2014,06,07,11,43,18.90
2014,06,07,11,44,18.90
2014,06,07,11,45,19.00
2014,06,07,11,46,19.00
2014,06,07,11,47,19.10
2014,06,07,11,48,19.10
2014,06,07,11,49,19.00
2014,06,07,11,50,18.90
2014,06,07,11,51,18.80
2014,06,07,11,52,18.80
2014,06,07,11,53,18.60
2014,06,07,11,54,18.60
2014,06,07,11,55,18.70
2014,06,07,11,56,18.90
2014,06,07,11,57,19.00
2014,06,07,11,58,19.20
2014,06,07,11,59,19.30
2014,06,07,12,00,19.30
2014,06,07,12,01,19.40
2014,06,07,12,02,19.50
2014,06,07,12,03,19.50
2014,06,07,12,04,19.40
2014,06,07,12,05,19.40
2014,06,07,12,06,19.40
2014,06,07,12,07,19.40
2014,06,07,12,08,19.40
2014,06,07,12,09,19.50
2014,06,07,12,10,19.50
2014,06,07,12,11,19.50
2014,06,07,12,12,19.40
2014,06,07,12,13,19.40
2014,06,07,12,14,19.30
2014,06,07,12,15,19.30
2014,06,07,12,16,19.30
2014,06,07,12,17,19.30
2014,06,07,12,18,19.40
2014,06,07,12,19,19.40
2014,06,07,12,20,19.50
2014,06,07,12,21,19.50
2014,06,07,12,22,19.50
2014,06,07,12,23,19.60
2014,06,07,12,24,19.70
2014,06,07,12,25,19.60
2014,06,07,12,26,19.60
2014,06,07,12,27,19.60
2014,06,07,12,28,19.60
2014,06,07,12,29,19.70
2014,06,07,12,30,19.80
2014,06,07,12,31,19.90
2014,06,07,12,32,20.10
2014,06,07,12,33,20.20
2014,06,07,12,34,20.30
2014,06,07,12,35,20.40
2014,06,07,12,36,20.40
2014,06,07,12,37,20.50
2014,06,07,12,38,20.40
2014,06,07,12,39,20.40
2014,06,07,12,40,20.40
2014,06,07,12,41,20.40
2014,06,07,12,42,20.40
2014,06,07,12,43,20.30
2014,06,07,12,44,20.30
2014,06,07,12,45,20.20
2014,06,07,12,46,20.00
2014,06,07,12,47,19.90
2014,06,07,12,48,19.80
2014,06,07,12,49,19.70
2014,06,07,12,50,19.60
2014,06,07,12,51,19.50
2014,06,07,12,52,19.40
2014,06,07,12,53,19.40
2014,06,07,12,54,19.40
2014,06,07,12,55,19.30
2014,06,07,12,56,19.30
2014,06,07,12,57,19.30
2014,06,07,12,58,19.30
2014,06,07,12,59,19.30
2014,06,07,13,00,19.40
2014,06,07,13,01,19.40
2014,06,07,13,02,19.50
2014,06,07,13,03,19.50
2014,06,07,13,04,19.60
2014,06,07,13,05,19.70
2014,06,07,13,06,19.70
2014,06,07,13,07,19.70
2014,06,07,13,08,19.70
2014,06,07,13,09,19.70
2014,06,07,13,10,19.70
2014,06,07,13,11,19.80
2014,06,07,13,12,19.80
2014,06,07,13,13,19.80
2014,06,07,13,14,19.90
2014,06,07,13,15,19.90
2014,06,07,13,16,20.00
2014,06,07,13,17,20.00
2014,06,07,13,18,20.00
2014,06,07,13,19,20.00
2014,06,07,13,20,20.00
2014,06,07,13,21,20.10
2014,06,07,13,22,20.20
2014,06,07,13,23,20.20
2014,06,07,13,24,20.30
2014,06,07,13,25,20.30
2014,06,07,13,26,20.30
2014,06,07,13,27,20.40
2014,06,07,13,28,20.50
2014,06,07,13,29,20.60
2014,06,07,13,30,20.60
2014,06,07,13,31,20.60
2014,06,07,13,32,20.50
2014,06,07,13,33,20.50
2014,06,07,13,34,20.50
2014,06,07,13,35,20.50
2014,06,07,13,36,20.40
2014,06,07,13,37,20.40
2014,06,07,13,38,20.50
2014,06,07,13,39,20.50
2014,06,07,13,40,20.50
2014,06,07,13,41,20.50
2014,06,07,13,42,20.60
2014,06,07,13,43,20.70
2014,06,07,13,44,20.70
2014,06,07,13,45,20.70
2014,06,07,13,46,20.60
2014,06,07,13,47,20.50
2014,06,07,13,48,20.50
2014,06,07,13,49,20.50
2014,06,07,13,50,20.40
2014,06,07,13,51,20.40
2014,06,07,13,52,20.40
2014,06,07,13,53,20.30
2014,06,07,13,54,20.30
2014,06,07,13,55,20.30
2014,06,07,13,56,20.30
2014,06,07,13,57,20.30
2014,06,07,13,58,20.30
2014,06,07,13,59,20.30
2014,06,07,14,00,20.30
2014,06,07,14,01,20.30
2014,06,07,14,02,20.30
2014,06,07,14,03,20.40
2014,06,07,14,04,20.50
2014,06,07,14,05,20.50
2014,06,07,14,06,20.60
2014,06,07,14,07,20.70
2014,06,07,14,08,20.80
2014,06,07,14,09,20.90
2014,06,07,14,10,21.00
2014,06,07,14,11,21.00
2014,06,07,14,12,21.00
2014,06,07,14,13,21.00
2014,06,07,14,14,21.00
2014,06,07,14,15,21.00
2014,06,07,14,16,21.10
2014,06,07,14,17,21.10
2014,06,07,14,18,21.00
2014,06,07,14,19,20.80
2014,06,07,14,20,20.60
2014,06,07,14,21,20.50
2014,06,07,14,22,20.40
2014,06,07,14,23,20.30
2014,06,07,14,24,20.20
2014,06,07,14,25,20.30
2014,06,07,14,26,20.30
2014,06,07,14,27,20.40
2014,06,07,14,28,20.40
2014,06,07,14,29,20.40
2014,06,07,14,30,20.40
2014,06,07,14,31,20.40
2014,06,07,14,32,20.30
2014,06,07,14,33,20.30
2014,06,07,14,34,20.30
2014,06,07,14,35,20.40
2014,06,07,14,36,20.50
2014,06,07,14,37,20.50
2014,06,07,14,38,20.50
2014,06,07,14,39,20.60
2014,06,07,14,40,20.70
2014,06,07,14,41,20.80
2014,06,07,14,42,20.90
2014,06,07,14,43,20.90
2014,06,07,14,44,21.00
2014,06,07,14,45,21.00
2014,06,07,14,46,21.10
2014,06,07,14,47,21.20
2014,06,07,14,48,21.20
2014,06,07,14,49,21.30
2014,06,07,14,50,21.30
2014,06,07,14,51,21.30
2014,06,07,14,52,21.30
2014,06,07,14,53,21.40
2014,06,07,14,54,21.40
2014,06,07,14,55,21.30
2014,06,07,14,56,21.20
2014,06,07,14,57,21.10
2014,06,07,14,58,21.10
2014,06,07,14,59,21.00
2014,06,07,15,00,20.90
2014,06,07,15,01,20.90
2014,06,07,15,02,20.80
2014,06,07,15,03,20.80
2014,06,07,15,04,20.80
2014,06,07,15,05,20.80
2014,06,07,15,06,20.80
2014,06,07,15,07,20.90
2014,06,07,15,08,21.00
2014,06,07,15,09,21.10
2014,06,07,15,10,21.20
2014,06,07,15,11,21.20
2014,06,07,15,12,21.10
2014,06,07,15,13,21.10
2014,06,07,15,14,21.00
2014,06,07,15,15,20.90
2014,06,07,15,16,20.90
2014,06,07,15,17,20.90
2014,06,07,15,18,20.90
2014,06,07,15,19,20.80
2014,06,07,15,20,20.80
2014,06,07,15,21,20.80
2014,06,07,15,22,20.90
2014,06,07,15,23,20.90
2014,06,07,15,24,21.00
2014,06,07,15,25,21.10
2014,06,07,15,26,21.20
2014,06,07,15,27,21.20
2014,06,07,15,28,21.20
2014,06,07,15,29,21.20
2014,06,07,15,30,21.20
2014,06,07,15,31,21.20
2014,06,07,15,32,21.20
2014,06,07,15,33,21.10
2014,06,07,15,34,21.10
2014,06,07,15,35,21.00
2014,06,07,15,36,21.00
2014,06,07,15,37,20.90
2014,06,07,15,38,20.80
2014,06,07,15,39,20.80
2014,06,07,15,40,20.80
2014,06,07,15,41,20.80
2014,06,07,15,42,20.80
2014,06,07,15,43,20.80
2014,06,07,15,44,20.80
2014,06,07,15,45,20.80
2014,06,07,15,46,20.80
2014,06,07,15,47,20.80
2014,06,07,15,48,20.80
2014,06,07,15,49,20.80
2014,06,07,15,50,20.90
2014,06,07,15,51,20.90
2014,06,07,15,52,21.00
2014,06,07,15,53,21.00
2014,06,07,15,54,21.10
2014,06,07,15,55,21.10
2014,06,07,15,56,21.10
2014,06,07,15,57,21.00
2014,06,07,15,58,20.90
2014,06,07,15,59,20.80
2014,06,07,16,00,20.70
2014,06,07,16,01,20.60
2014,06,07,16,02,20.60
2014,06,07,16,03,20.50
2014,06,07,16,04,20.50
2014,06,07,16,05,20.50
2014,06,07,16,06,20.50
2014,06,07,16,07,20.50
2014,06,07,16,08,20.50
2014,06,07,16,09,20.40
2014,06,07,16,10,20.50
2014,06,07,16,11,20.60
2014,06,07,16,12,20.70
2014,06,07,16,13,20.80
2014,06,07,16,14,20.80
2014,06,07,16,15,20.80
2014,06,07,16,16,20.70
2014,06,07,16,17,20.70
2014,06,07,16,18,20.60
2014,06,07,16,19,20.60
2014,06,07,16,20,20.60
2014,06,07,16,21,20.60
2014,06,07,16,22,20.60
2014,06,07,16,23,20.60
2014,06,07,16,24,20.60
2014,06,07,16,25,20.60
2014,06,07,16,26,20.60
2014,06,07,16,27,20.60
2014,06,07,16,28,20.60
2014,06,07,16,29,20.60
2014,06,07,16,30,20.60
2014,06,07,16,31,20.70
2014,06,07,16,32,20.80
2014,06,07,16,33,20.80
2014,06,07,16,34,20.90
2014,06,07,16,35,20.90
2014,06,07,16,36,20.90
2014,06,07,16,37,20.90
2014,06,07,16,38,20.90
2014,06,07,16,39,21.00
2014,06,07,16,40,21.00
2014,06,07,16,41,21.10
2014,06,07,16,42,21.20
2014,06,07,16,43,21.20
2014,06,07,16,44,21.30
2014,06,07,16,45,21.30
2014,06,07,16,46,21.30
2014,06,07,16,47,21.40
2014,06,07,16,48,21.40
2014,06,07,16,49,21.50
2014,06,07,16,50,21.50
2014,06,07,16,51,21.50
2014,06,07,16,52,21.50
2014,06,07,16,53,21.40
2014,06,07,16,54,21.40
2014,06,07,16,55,21.40
2014,06,07,16,56,21.30
2014,06,07,16,57,21.30
2014,06,07,16,58,21.20
2014,06,07,16,59,21.20
2014,06,07,17,00,21.20
2014,06,07,17,01,21.20
2014,06,07,17,02,21.20
2014,06,07,17,03,21.20
2014,06,07,17,04,21.30
2014,06,07,17,05,21.30
2014,06,07,17,06,21.30
2014,06,07,17,07,21.20
2014,06,07,17,08,21.20
2014,06,07,17,09,21.10
2014,06,07,17,10,21.10
2014,06,07,17,11,21.00
2014,06,07,17,12,20.90
2014,06,07,17,13,20.90
2014,06,07,17,14,20.80
2014,06,07,17,15,20.80
2014,06,07,17,16,20.90
2014,06,07,17,17,20.90
2014,06,07,17,18,20.90
2014,06,07,17,19,21.00